Dr. Bill's Marine Weather

Coastal Marine Forecast

       Alabama   Florida   Louisiana   Mississippi

Printer Friendly AL  FL  LA  MS

Data Buoys:   Western Gulf of Mexico    Eastern Gulf of Mexico
**********************************************************************
  Alabama
700 AM CDT THU OCT 23 2014

ALZ051>064-231300-
SOUTHWEST ALABAMA
  
CITY           SKY/WX    TMP DP  RH WIND       PRES   REMARKS
MOBILE         PTCLDY    48  44  86 NE8       30.09R                  
6HR MIN TEMP:  48; 6HR MAX TEMP:  53;                                

BROOKLEY FIELD CLEAR     54  48  80 NE10      30.10R                  
6HR MIN TEMP:  47; 6HR MAX TEMP:  56;                                

EVERGREEN      CLEAR     40  38  93 CALM      30.11S                  
6HR MIN TEMP:  40; 6HR MAX TEMP:  47;                                

**********************************************************************
  Florida
800 AM EDT THU OCT 23 2014

FLZ001>010-012>015-112-114-115-231300-
PANHANDLE FLORIDA
  
CITY           SKY/WX    TMP DP  RH WIND       PRES   REMARKS
PENSACOLA      CLEAR     53  45  74 N7        30.08R                  
PENSACOLA NAS  PTCLDY    50  46  86 NE7       30.07R                  
MILTON NAS     CLEAR     46  41  82 N7        30.10R WCI  42          
CRESTVIEW      CLEAR     43  42  97 CALM      30.11R                  
DUKE FIELD     FAIR      42  40  93 N2        30.09R                  
VALPARAISO     CLEAR     48  44  84 N9        30.08R WCI  44          
MARY ESTHER    CLEAR     46  41  81 N7        30.07R WCI  42          
PANAMA CITY    FAIR      47  43  86 NW3       30.07R                  
TYNDALL AFB    CLEAR     53  47  79 VRB2      30.07R                  
APALACHICOLA   CLEAR     53  47  79 NE7       30.05R                  

STATION/POSITION SKY/WX   TEMP    WIND        PRES    WAVE   SWELL
                          AIR SEA DIR/SP/G            HT/PER HT/PER
                          (F)     (DEG/KT/KT) (MB)    (FT/S) (FT/S)
30.1N   87.6W              65 78   30/ 16/ 19 1017.3R   3/ 5
29.2N   88.2W              71 78   60/ 16/ 19 1017.5R   4/ 6
28.8N   86.0W              73 80   80/ 17/ 21 1015.6R   6/ 6
PANAMA CITY BEAC           51 76   10/  7/  9 1018.2R
CAPE SAN BLAS    NOT AVBL
TOWER C                    67      70/ 18/ 19 1016.7F
28.5N   84.5W              71 81   60/ 16/ 21 1015.8R   5/ 6

**********************************************************************
  Louisiana
700 AM CDT THU OCT 23 2014

LAZ040-048-061>063-065-066-069-231300-
SOUTHEAST LOUISIANA
  
CITY           SKY/WX    TMP DP  RH WIND       PRES   REMARKS
N.O. AUDUBON     N/A     59 N/A N/A MISG        N/A                   
6HR MIN TEMP:  58; 6HR MAX TEMP:  67;                                

N.O. INTL ARPT CLEAR     62  50  64 NE7       30.07R                  
6HR MIN TEMP:  62; 6HR MAX TEMP:  68;                                

N.O. LAKEFRONT LGT RAIN  62  50  64 NE16      30.08R                  
6HR MIN TEMP:  62; 6HR MAX TEMP:  68; 6HR PCP: TRACE;                

N.O. DOWNTOWN* FAIR      61  46  59 NE6       30.08R                  
6HR MIN TEMP:  61; 6HR MAX TEMP:  66;                                

SLIDELL        CLEAR     46  43  89 CALM      30.09R                  
6HR MIN TEMP:  46; 6HR MAX TEMP:  56;                                

BATON ROUGE    CLEAR     50  46  86 CALM      30.10R                  
6HR MIN TEMP:  50; 6HR MAX TEMP:  57;                                

BOOTHVILLE     CLEAR     69  58  67 NE7       30.05R                  
6HR MIN TEMP:  69; 6HR MAX TEMP:  72;                                

BELLE CHASSE   CLEAR     56  49  77 NE6       30.06S                  
6HR MIN TEMP:  56; 6HR MAX TEMP:  62;                                

BOGALUSA*        N/A     44  40  88 CALM      30.13R                  
6HR MIN TEMP:  44; 6HR MAX TEMP:  51;                                

NEW ROADS*     FAIR      51  46  84 N3        30.11R                  
6HR MIN TEMP:  51; 6HR MAX TEMP:  57;                                

GONZALES*      FAIR      52  50  92 N3        30.08S                  
6HR MIN TEMP:  52; 6HR MAX TEMP:  60;                                

HAMMOND*       CLEAR     50  45  81 CALM      30.11S                  
HOUMA*         CLEAR     54  48  82 N5        30.07R                  
PORT FOURCHON* SUNNY     68  59  73 NE10      30.08R                  

**********************************************************************
  Mississippi
700 AM CDT THU OCT 23 2014

MSZ080>082-231300-
COASTAL MISSISSIPPI
  
CITY           SKY/WX    TMP DP  RH WIND       PRES   REMARKS
BAY ST LOUIS   CLEAR     52  43  71 NE7       30.09                   
BILOXI         CLEAR     50  45  83 NE9       30.08R                  
6HR MIN TEMP:  50; 6HR MAX TEMP:  57;                                

PASCAGOULA     CLEAR     45  42  89 N5        30.09R                  
6HR MIN TEMP:  42; 6HR MAX TEMP:  51;      
About Us | Coastal Marine Forecast | Offshore Marine Forecast | Marine Weather Discussion
Gulf Coast Tides | Exxon Mobil Platform 112B | Hourly Weather Observations | Weather Radar
Severe Weather Potential | Sea Surface Temperatures | Solar/Lunar Data | Hurricane Advisories | Home
     
USA Logo Dr. Bill's Marine Weather
Last date changed: February 4, 2005 12:04 PM
www.gulfmarineweather.com/hourlyweatherobservations.shtml
Contact Us